Simultaneous Nadir Overpasses (SNOs) Predictions

Prediction of SNOs between AQUA and METOP-B Satellite Orbit:

Table of predicted SNOs for the next 14.0 days since TLE Epoch: 2/10/2024
Index Date (AQUA) Time (AQUA) Lat,Lon (AQUA) SZA (AQUA ) Date (METOP-B) Time (METOP-B) Lat,Lon (METOP-B) SZA (METOP-B ) Distance(km) Time Diff (sec)
1 02/12/2024 03:06:31 75.30, 130.23 89.20 02/12/2024 03:05:29 75.32, 130.29 89.22 2.73 62
2 02/12/2024 03:55:54 -75.35, -62.26 90.76 02/12/2024 03:56:10 -75.36, -62.25 90.75 1.41 16
3 02/14/2024 19:18:23 75.32,-112.76 88.32 02/14/2024 19:17:12 75.32,-112.64 88.33 3.12 71
4 02/14/2024 20:07:46 -75.37, 54.76 91.64 02/14/2024 20:07:53 -75.37, 54.83 91.64 1.71 7
5 02/14/2024 20:57:17 75.72,-138.60 88.73 02/14/2024 20:58:25 75.73,-136.72 88.69 51.57 68
6 02/17/2024 11:30:10 75.22, 4.60 87.29 02/17/2024 11:28:58 75.12, 3.83 87.23 24.57 72
7 02/17/2024 12:19:35 -75.37, 171.85 92.57 02/17/2024 12:19:35 -75.36, 171.87 92.57 0.50 0
8 02/17/2024 13:09:00 75.43, -20.66 87.49 02/17/2024 13:10:13 75.44, -20.57 87.49 3.06 73
9 02/20/2024 03:41:53 74.95, 122.41 86.06 02/20/2024 03:40:45 74.91, 120.28 86.09 61.75 68
10 02/20/2024 04:31:23 -75.35, -71.00 93.54 02/20/2024 04:31:18 -75.35, -71.13 93.53 3.58 5
11 02/20/2024 05:20:48 75.41, 96.47 86.53 02/20/2024 05:21:56 75.42, 96.43 86.53 1.51 68
12 02/22/2024 19:53:36 74.77,-120.00 84.89 02/22/2024 19:52:31 74.73,-123.15 84.96 92.08 65
13 02/22/2024 20:43:10 -75.36, 46.06 94.49 02/22/2024 20:43:00 -75.36, 45.98 94.48 2.42 10



Historial Predications of SNOs between AQUA and METOP-B
